STARLINK-2626 (48363 NORAD) Tracking and Keplerian Element Data

This shows tracking and keplerian element data for the satellite.

Feedback or suggestion? Click here.




ElementValue
Catalog48363
NameSTARLINK-2626
Epoch Orbit1387
Epoch Day214.64553488
Epoch Year2021
RAAN338.6143
Inclination53.0557
Eccentricity0.0001427
Argument of Perigee110.2627
Mean Anonmoly249.8516
Mean Motion15.06389805
Decay Rate-1.136E-05
L11 48363U 21038L 21214.64553488 -.00001136 00000-0 -57404-4 0 9998
L22 48363 53.0557 338.6143 0001427 110.2627 249.8516 15.06389805 13871

Live tracking and technical data element details for STARLINK-2626 (NORAD 48363). STARLINK-2626 can be tracked NOW for your location showing map with azimuth and elevation plus other details from your city location.

Track the satellite on the map from your city or location and see movement details for azimuth, elevation, latitude, longitude, range, height, and movement on the map or in text.







IsCatalogInMostPopularTable: catalog: 48363, numindb: 30
Update: records affected: 1



GetName: 48363 STARLINK-2626

Hit Count: updated at: Tue, 03 Aug 2021 23:11:59 GMT